TimeWET,TemperatureF,Dew PointF,Humidity,Sea Level PressureIn,VisibilityMPH,Wind Direction,Wind SpeedMPH,Gust SpeedMPH,PrecipitationIn,Events,Conditions,WindDirDegrees,DateUTC
12:00 AM,60,52,69,29.99,5,SSW,6.9,,,,Mostly Cloudy,210,2012-10-21 00:00:00
12:00 AM,60.8,51.8,72,29.98,5.0,SSW,6.9,-,N/A,,Mostly Cloudy,210,2012-10-21 00:00:00
1:30 AM,59.0,53.6,82,29.98,1.4,South,6.9,-,N/A,,Mostly Cloudy,190,2012-10-21 01:30:00
2:00 AM,59.0,53.6,82,29.98,1.4,South,9.2,-,N/A,,Mostly Cloudy,190,2012-10-21 02:00:00
2:30 AM,59.0,51.8,77,29.98,1.4,South,11.5,-,N/A,,Mostly Cloudy,190,2012-10-21 02:30:00
3:00 AM,58,52,76,29.99,1,South,9.2,,,,,180,2012-10-21 03:00:00
3:00 AM,59.0,51.8,77,29.98,1.4,South,10.4,-,N/A,,Unknown,180,2012-10-21 03:00:00
3:30 AM,59.0,51.8,77,29.98,1.4,South,11.5,-,N/A,,Unknown,190,2012-10-21 03:30:00
4:00 AM,59.0,51.8,77,29.98,5.0,South,12.7,-,N/A,,Mostly Cloudy,190,2012-10-21 04:00:00
4:30 AM,59.0,51.8,77,29.98,5.0,South,10.4,-,N/A,,Mostly Cloudy,190,2012-10-21 04:30:00
5:00 AM,59.0,51.8,77,29.98,5.0,South,11.5,-,N/A,,Mostly Cloudy,190,2012-10-21 05:00:00
5:30 AM,59.0,51.8,77,29.98,5.0,South,11.5,-,N/A,,Mostly Cloudy,190,2012-10-21 05:30:00
6:00 AM,58,51,71,30.00,5,South,11.5,,,,Mostly Cloudy,190,2012-10-21 06:00:00
6:00 AM,59.0,51.8,77,29.98,5.0,South,11.5,-,N/A,,Mostly Cloudy,190,2012-10-21 06:00:00
6:30 AM,59.0,51.8,77,29.98,6.2,South,11.5,-,N/A,,Scattered Clouds,190,2012-10-21 06:30:00
7:00 AM,59.0,51.8,77,30.01,6.2,South,11.5,-,N/A,,Scattered Clouds,190,2012-10-21 07:00:00
7:30 AM,59.0,51.8,77,30.01,6.2,South,11.5,-,N/A,,Scattered Clouds,190,2012-10-21 07:30:00
8:00 AM,60.8,51.8,72,30.01,6.2,South,12.7,-,N/A,,Scattered Clouds,190,2012-10-21 08:00:00
8:30 AM,62.6,53.6,72,30.01,6.2,South,11.5,-,N/A,,Scattered Clouds,180,2012-10-21 08:30:00
9:00 AM,64,53,60,30.05,6,SSW,13.8,,,,Partly Cloudy,200,2012-10-21 09:00:00
9:00 AM,64.4,53.6,68,30.04,6.2,SSW,13.8,-,N/A,,Scattered Clouds,200,2012-10-21 09:00:00
9:30 AM,64.4,53.6,68,30.04,6.2,SSW,13.8,-,N/A,,Mostly Cloudy,200,2012-10-21 09:30:00
10:00 AM,64.4,53.6,68,30.04,6.2,SSW,13.8,-,N/A,,Mostly Cloudy,200,2012-10-21 10:00:00
10:30 AM,68.0,55.4,64,30.04,6.2,SSW,13.8,-,N/A,,Mostly Cloudy,210,2012-10-21 10:30:00
11:00 AM,69.8,53.6,56,30.04,6.2,SSW,16.1,-,N/A,,Scattered Clouds,210,2012-10-21 11:00:00
11:30 AM,69.8,53.6,56,30.04,6.2,SW,15.0,-,N/A,,Mostly Cloudy,220,2012-10-21 11:30:00
12:00 PM,69,54,50,30.05,6,SW,16.1,,,,Partly Cloudy,230,2012-10-21 12:00:00
12:00 PM,69.8,55.4,60,30.04,6.2,SW,16.1,-,N/A,,Mostly Cloudy,230,2012-10-21 12:00:00
12:30 PM,71.6,53.6,53,30.04,6.2,SW,13.8,-,N/A,,Mostly Cloudy,220,2012-10-21 12:30:00
1:00 PM,71.6,55.4,57,30.01,6.2,SW,16.1,-,N/A,,Mostly Cloudy,230,2012-10-21 13:00:00
1:30 PM,71.6,53.6,53,30.01,6.2,SW,17.3,-,N/A,,Mostly Cloudy,230,2012-10-21 13:30:00
2:00 PM,71.6,53.6,53,30.01,6.2,SW,18.4,-,N/A,,Mostly Cloudy,230,2012-10-21 14:00:00
3:00 PM,70,55,48,30.03,6,WSW,17.3,,,,Scattered Clouds,240,2012-10-21 15:00:00
3:00 PM,69.8,55.4,60,30.01,6.2,WSW,17.3,-,N/A,,Scattered Clouds,240,2012-10-21 15:00:00
4:00 PM,69.8,55.4,60,30.01,6.2,WSW,12.7,-,N/A,,Mostly Cloudy,250,2012-10-21 16:00:00
5:00 PM,68.0,57.2,68,30.01,6.2,WSW,11.5,-,N/A,,Mostly Cloudy,240,2012-10-21 17:00:00
6:00 PM,68.0,57.2,68,30.04,6.2,WSW,10.4,-,N/A,,Mostly Cloudy,250,2012-10-21 18:00:00
7:00 PM,68.0,59.0,73,30.04,6.2,WSW,9.2,-,N/A,,Mostly Cloudy,250,2012-10-21 19:00:00
8:00 PM,66.2,59.0,78,30.04,5.0,Variable,2.3,-,N/A,,Mostly Cloudy,0,2012-10-21 20:00:00
9:00 PM,61,56,77,30.07,5,Calm,Calm,,,,Partly Cloudy,,2012-10-21 21:00:00
9:00 PM,60.8,55.4,82,30.06,5.0,Calm,Calm,-,N/A,,Mostly Cloudy,0,2012-10-21 21:00:00
9:30 PM,60.8,55.4,82,30.06,5.0,Calm,Calm,-,N/A,,Mostly Cloudy,0,2012-10-21 21:30:00
10:00 PM,60.8,57.2,88,30.06,5.0,ENE,3.5,-,N/A,,Mostly Cloudy,70,2012-10-21 22:00:00
10:30 PM,60.8,55.4,82,30.06,5.0,ESE,3.5,-,N/A,,Mostly Cloudy,120,2012-10-21 22:30:00
11:00 PM,59.0,55.4,88,30.04,5.0,East,3.5,-,N/A,,Mostly Cloudy,80,2012-10-21 23:00:00
11:30 PM,59.0,55.4,88,30.06,5.0,ENE,3.5,-,N/A,,Mostly Cloudy,70,2012-10-21 23:30:00